| time (UTC) | temp C | wind direction | speed KPH | gust KPH | rain 1hr cm | rain 24hr cm | rain mn cm | humidity % | barometer mb |
| 20260906084536 | 15 | 180 | 4.8 | 11.3 | 0.00 | 0.00 | 0.00 | 51 | 1029.7 |
| 20260906083515 | 15 | 203 | 3.2 | 6.4 | 0.00 | 0.00 | 0.00 | 53 | 1029.7 |
| 20260906082516 | 15 | 203 | 4.8 | 6.4 | 0.00 | 0.00 | 0.00 | 52 | 1029.7 |
| 20260906081517 | 15 | 180 | 4.8 | 6.4 | 0.00 | 0.00 | 0.00 | 53 | 1029.8 |
| 20260906080517 | 15 | 180 | 1.6 | 3.2 | 0.00 | 0.00 | 0.00 | 54 | 1030.5 |
| 20260906075517 | 14 | 225 | 1.6 | 4.8 | 0.00 | 0.00 | 0.00 | 55 | 1030.1 |
| 20260906074517 | 14 | 180 | 4.8 | 6.4 | 0.00 | 0.00 | 0.00 | 56 | 1030.1 |
| 20260906073517 | 13 | 180 | 4.8 | 9.7 | 0.00 | 0.00 | 0.00 | 58 | 1029.5 |
| 20260906072517 | 13 | 180 | 4.8 | 11.3 | 0.00 | 0.00 | 0.00 | 62 | 1029.6 |
| 20260906071517 | 12 | 180 | 4.8 | 8.0 | 0.00 | 0.00 | 0.00 | 65 | 1029.1 |
| 20260906070517 | 12 | 180 | 3.2 | 4.8 | 0.00 | 0.00 | 0.00 | 67 | 1029.1 |
| 20260906065557 | 12 | 180 | 3.2 | 6.4 | 0.00 | 0.00 | 0.00 | 68 | 1029.3 |
| 20260906064517 | 12 | 203 | 3.2 | 6.4 | 0.00 | 0.00 | 0.00 | 68 | 1029.3 |
| 20260906063537 | 13 | 180 | 1.6 | 4.8 | 0.00 | 0.00 | 0.00 | 65 | 1029.9 |
| 20260906062517 | 13 | 180 | 3.2 | 4.8 | 0.00 | 0.00 | 0.00 | 62 | 1029.9 |
| 20260906061537 | 13 | 180 | 3.2 | 4.8 | 0.00 | 0.00 | 0.00 | 61 | 1030.0 |
| 20260906060517 | 13 | 180 | 3.2 | 4.8 | 0.00 | 0.00 | 0.00 | 61 | 1030.1 |
| 20260906055515 | 13 | 203 | 1.6 | 4.8 | 0.00 | 0.00 | 0.00 | 61 | 1030.2 |
| 20260906054515 | 14 | 203 | 3.2 | 4.8 | 0.00 | 0.00 | 0.00 | 60 | 1030.2 |
| 20260906053535 | 14 | 203 | 3.2 | 4.8 | 0.00 | 0.00 | 0.00 | 59 | 1030.3 |
| 20260906052516 | 14 | 203 | 4.8 | 11.3 | 0.00 | 0.00 | 0.00 | 59 | 1030.5 |
| 20260906051515 | 14 | 180 | 4.8 | 9.7 | 0.00 | 0.00 | 0.00 | 59 | 1030.6 |
| 20260906050515 | 14 | 203 | 3.2 | 11.3 | 0.00 | 0.00 | 0.00 | 59 | 1029.9 |
| 20260906045615 | 14 | 180 | 4.8 | 11.3 | 0.00 | 0.00 | 0.00 | 60 | 1029.9 |
| 20260906044515 | 14 | 225 | 11.3 | 19.3 | 0.00 | 0.00 | 0.00 | 60 | 1030.1 |
| 20260906043515 | 14 | 225 | 12.9 | 22.5 | 0.00 | 0.00 | 0.00 | 60 | 1029.3 |
| 20260906042515 | 14 | 203 | 6.4 | 17.7 | 0.00 | 0.00 | 0.00 | 59 | 1029.2 |
| 20260906041515 | 14 | 203 | 6.4 | 14.5 | 0.00 | 0.00 | 0.00 | 58 | 1029.1 |
| 20260906040535 | 14 | 225 | 4.8 | 17.7 | 0.00 | 0.00 | 0.00 | 61 | 1028.6 |
| 20260906035515 | 13 | 225 | 9.7 | 17.7 | 0.00 | 0.00 | 0.00 | 63 | 1028.7 |
| 20260906034537 | 13 | 225 | 8.0 | 16.1 | 0.00 | 0.00 | 0.00 | 65 | 1028.2 |
| 20260906033537 | 13 | 225 | 4.8 | 12.9 | 0.00 | 0.00 | 0.00 | 62 | 1028.0 |
| 20260906032517 | 14 | 225 | 11.3 | 19.3 | 0.00 | 0.00 | 0.00 | 59 | 1028.5 |
| 20260906031517 | 15 | 203 | 8.0 | 14.5 | 0.00 | 0.00 | 0.00 | 54 | 1028.2 |
| 20260906030517 | 15 | 180 | 6.4 | 12.9 | 0.00 | 0.00 | 0.00 | 51 | 1027.5 |
| 20260906025517 | 15 | 180 | 1.6 | 3.2 | 0.00 | 0.00 | 0.00 | 53 | 1026.6 |
| 20260906024537 | 15 | 180 | 1.6 | 3.2 | 0.00 | 0.00 | 0.00 | 54 | 1026.5 |
| 20260906023517 | 15 | 23 | 1.6 | 3.2 | 0.00 | 0.00 | 0.00 | 50 | 1025.6 |
| 20260906022517 | 15 | 0 | 3.2 | 6.4 | 0.00 | 0.00 | 0.00 | 52 | 1025.5 |
| 20260906021517 | 15 | 23 | 3.2 | 6.4 | 0.00 | 0.00 | 0.00 | 52 | 1025.4 |
| 20260906020517 | 15 | 68 | 4.8 | 6.4 | 0.00 | 0.00 | 0.00 | 52 | 1025.4 |
| 20260906015517 | 15 | 45 | 3.2 | 8.0 | 0.00 | 0.00 | 0.00 | 52 | 1025.5 |
| 20260906014517 | 15 | 23 | 4.8 | 12.9 | 0.00 | 0.00 | 0.00 | 52 | 1025.6 |
| 20260906013517 | 16 | 23 | 4.8 | 11.3 | 0.00 | 0.00 | 0.00 | 53 | 1025.5 |
| 20260906012517 | 16 | 0 | 9.7 | 32.2 | 0.00 | 0.00 | 0.00 | 51 | 1025.5 |
| 20260906011517 | 16 | 293 | 11.3 | 27.4 | 0.00 | 0.00 | 0.00 | 48 | 1026.7 |
| 20260906010517 | 17 | 338 | 1.6 | 6.4 | 0.00 | 0.00 | 0.00 | 45 | 1026.4 |
| 20260906005516 | 17 | 0 | 4.8 | 12.9 | 0.00 | 0.00 | 0.00 | 48 | 1026.8 |
| 20260906004516 | 17 | 23 | 4.8 | 11.3 | 0.00 | 0.00 | 0.00 | 43 | 1026.7 |
| 20260906003517 | 18 | 0 | 6.4 | 16.1 | 0.00 | 0.00 | 0.00 | 43 | 1026.8 |
| 20260906002516 | 18 | 23 | 6.4 | 16.1 | 0.00 | 0.00 | 0.00 | 44 | 1027.4 |
| 20260906001517 | 19 | 23 | 4.8 | 11.3 | 0.00 | 0.00 | 0.00 | 42 | 1027.3 |
| 20260906000536 | 20 | 0 | 6.4 | 17.7 | 0.00 | 0.00 | 0.00 | 40 | 1028.3 |
| 20260905235516 | 20 | 293 | 9.7 | 19.3 | 0.00 | 0.00 | 0.00 | 39 | 1027.8 |
| 20260905234516 | 19 | 338 | 9.7 | 20.9 | 0.00 | 0.00 | 0.00 | 40 | 1027.3 |
| 20260905233516 | 21 | 0 | 4.8 | 12.9 | 0.00 | 0.00 | 0.00 | 36 | 1027.8 |
| 20260905232517 | 21 | 0 | 6.4 | 14.5 | 0.00 | 0.00 | 0.00 | 34 | 1028.2 |
| 20260905231516 | 22 | 0 | 1.6 | 11.3 | 0.00 | 0.00 | 0.00 | 32 | 1029.0 |
| 20260905230516 | 21 | 23 | 1.6 | 8.0 | 0.00 | 0.00 | 0.00 | 34 | 1028.3 |
| 20260905225517 | 21 | 68 | 1.6 | 4.8 | 0.00 | 0.00 | 0.00 | 35 | 1027.7 |
| 20260905224537 | 21 | 68 | 3.2 | 8.0 | 0.00 | 0.00 | 0.00 | 35 | 1027.6 |
| 20260905223516 | 21 | 23 | 3.2 | 9.7 | 0.00 | 0.00 | 0.00 | 35 | 1027.6 |
| 20260905222516 | 21 | 23 | 1.6 | 8.0 | 0.00 | 0.00 | 0.00 | 36 | 1027.7 |
| 20260905221516 | 21 | 45 | 6.4 | 12.9 | 0.00 | 0.00 | 0.00 | 34 | 1028.2 |
| 20260905220516 | 21 | 45 | 3.2 | 14.5 | 0.00 | 0.00 | 0.00 | 34 | 1028.3 |
| 20260905215516 | 22 | 23 | 4.8 | 16.1 | 0.00 | 0.00 | 0.00 | 33 | 1029.0 |
| 20260905214516 | 22 | 23 | 6.4 | 17.7 | 0.00 | 0.00 | 0.00 | 33 | 1028.4 |
| 20260905213516 | 22 | 0 | 1.6 | 9.7 | 0.00 | 0.00 | 0.00 | 34 | 1029.1 |
| 20260905212516 | 22 | 23 | 4.8 | 14.5 | 0.00 | 0.00 | 0.00 | 33 | 1029.1 |
| 20260905211516 | 22 | 23 | 4.8 | 19.3 | 0.00 | 0.00 | 0.00 | 32 | 1029.2 |
| 20260905210556 | 22 | 23 | 6.4 | 19.3 | 0.00 | 0.00 | 0.00 | 35 | 1028.9 |
| 20260905205516 | 21 | 0 | 4.8 | 16.1 | 0.00 | 0.00 | 0.00 | 35 | 1028.8 |
| 20260905204516 | 21 | 45 | 3.2 | 11.3 | 0.00 | 0.00 | 0.00 | 35 | 1029.0 |
| 20260905203516 | 21 | 68 | 4.8 | 11.3 | 0.00 | 0.00 | 0.00 | 35 | 1028.9 |
| 20260905202516 | 21 | 68 | 4.8 | 19.3 | 0.00 | 0.00 | 0.00 | 36 | 1029.0 |
| 20260905201516 | 21 | 23 | 3.2 | 8.0 | 0.00 | 0.00 | 0.00 | 35 | 1029.0 |
| 20260905200536 | 21 | 23 | 3.2 | 9.7 | 0.00 | 0.00 | 0.00 | 36 | 1029.1 |
| 20260905195516 | 21 | 68 | 4.8 | 12.9 | 0.00 | 0.00 | 0.00 | 35 | 1029.1 |
| 20260905194516 | 22 | 68 | 6.4 | 14.5 | 0.00 | 0.00 | 0.00 | 33 | 1029.9 |
| 20260905193516 | 22 | 23 | 3.2 | 9.7 | 0.00 | 0.00 | 0.00 | 33 | 1029.8 |
| 20260905192516 | 22 | 45 | 3.2 | 9.7 | 0.00 | 0.00 | 0.00 | 34 | 1029.8 |
| 20260905191516 | 22 | 23 | 8.0 | 17.7 | 0.00 | 0.00 | 0.00 | 35 | 1029.8 |
| 20260905190516 | 21 | 23 | 6.4 | 14.5 | 0.00 | 0.00 | 0.00 | 36 | 1029.3 |
| 20260905185536 | 21 | 23 | 3.2 | 9.7 | 0.00 | 0.00 | 0.00 | 36 | 1029.3 |
| 20260905184516 | 22 | 68 | 4.8 | 14.5 | 0.00 | 0.00 | 0.00 | 35 | 1029.2 |
| 20260905183515 | 22 | 23 | 4.8 | 12.9 | 0.00 | 0.00 | 0.00 | 35 | 1029.3 |
| 20260905182516 | 22 | 45 | 4.8 | 14.5 | 0.00 | 0.00 | 0.00 | 33 | 1029.3 |
| 20260905181516 | 22 | 113 | 3.2 | 11.3 | 0.00 | 0.00 | 0.00 | 32 | 1029.4 |
| 20260905180516 | 22 | 338 | 1.6 | 9.7 | 0.00 | 0.00 | 0.00 | 32 | 1029.9 |
| 20260905175515 | 21 | 0 | 4.8 | 12.9 | 0.00 | 0.00 | 0.00 | 32 | 1029.4 |
| 20260905174516 | 21 | 338 | 6.4 | 14.5 | 0.00 | 0.00 | 0.00 | 32 | 1029.4 |
| 20260905173516 | 22 | 0 | 3.2 | 8.0 | 0.00 | 0.00 | 0.00 | 32 | 1030.4 |
| 20260905172516 | 21 | 338 | 6.4 | 16.1 | 0.00 | 0.00 | 0.00 | 33 | 1029.7 |
| 20260905171516 | 21 | 338 | 6.4 | 16.1 | 0.00 | 0.00 | 0.00 | 33 | 1029.7 |
| 20260905170515 | 21 | 23 | 4.8 | 14.5 | 0.00 | 0.00 | 0.00 | 34 | 1029.6 |
| 20260905165515 | 20 | 68 | 3.2 | 8.0 | 0.00 | 0.00 | 0.00 | 32 | 1029.0 |
| 20260905164515 | 20 | 113 | 1.6 | 6.4 | 0.00 | 0.00 | 0.00 | 32 | 1028.9 |
| 20260905163515 | 20 | 293 | 4.8 | 9.7 | 0.00 | 0.00 | 0.00 | 35 | 1029.7 |
| 20260905162515 | 19 | 270 | 3.2 | 11.3 | 0.00 | 0.00 | 0.00 | 36 | 1028.9 |
| 20260905161515 | 19 | 293 | 8.0 | 17.7 | 0.00 | 0.00 | 0.00 | 36 | 1028.8 |
| 20260905160515 | 18 | 270 | 6.4 | 14.5 | 0.00 | 0.00 | 0.00 | 37 | 1028.8 |
| 20260905155515 | 18 | 270 | 8.0 | 20.9 | 0.00 | 0.00 | 0.00 | 37 | 1029.0 |
| 20260905154538 | 18 | 270 | 9.7 | 17.7 | 0.00 | 0.00 | 0.00 | 37 | 1028.2 |
| 20260905153517 | 18 | 270 | 9.7 | 20.9 | 0.00 | 0.00 | 0.00 | 37 | 1028.4 |
| 20260905152517 | 18 | 248 | 6.4 | 14.5 | 0.00 | 0.00 | 0.00 | 38 | 1028.2 |
| 20260905151517 | 17 | 270 | 8.0 | 20.9 | 0.00 | 0.00 | 0.00 | 39 | 1028.1 |
| 20260905150517 | 17 | 270 | 6.4 | 14.5 | 0.00 | 0.00 | 0.00 | 40 | 1028.2 |
| 20260905145517 | 17 | 270 | 8.0 | 20.9 | 0.00 | 0.00 | 0.00 | 41 | 1027.8 |
| 20260905144517 | 16 | 248 | 8.0 | 22.5 | 0.00 | 0.00 | 0.00 | 42 | 1027.9 |
| 20260905143517 | 16 | 270 | 6.4 | 16.1 | 0.00 | 0.00 | 0.00 | 42 | 1027.9 |
| 20260905142557 | 16 | 248 | 8.0 | 22.5 | 0.00 | 0.00 | 0.00 | 43 | 1027.9 |
| 20260905141517 | 15 | 225 | 4.8 | 12.9 | 0.00 | 0.00 | 0.00 | 44 | 1027.1 |
| 20260905140517 | 15 | 225 | 4.8 | 14.5 | 0.00 | 0.00 | 0.00 | 45 | 1027.8 |
| 20260905135517 | 15 | 225 | 4.8 | 8.0 | 0.00 | 0.00 | 0.00 | 45 | 1027.8 |
| 20260905134517 | 15 | 225 | 4.8 | 12.9 | 0.00 | 0.00 | 0.00 | 45 | 1027.6 |
| 20260905133517 | 14 | 225 | 4.8 | 8.0 | 0.00 | 0.00 | 0.00 | 45 | 1028.2 |
| 20260905132517 | 14 | 225 | 4.8 | 9.7 | 0.00 | 0.00 | 0.00 | 45 | 1028.2 |
| 20260905131517 | 14 | 225 | 6.4 | 14.5 | 0.00 | 0.00 | 0.00 | 44 | 1028.1 |
| 20260905130517 | 14 | 225 | 4.8 | 9.7 | 0.00 | 0.00 | 0.00 | 44 | 1028.7 |
| 20260905125517 | 14 | 225 | 4.8 | 9.7 | 0.00 | 0.00 | 0.00 | 44 | 1028.6 |
| 20260905124517 | 14 | 248 | 3.2 | 12.9 | 0.00 | 0.00 | 0.00 | 44 | 1028.3 |
| 20260905123516 | 14 | 248 | 3.2 | 9.7 | 0.00 | 0.00 | 0.00 | 43 | 1028.4 |
| 20260905122517 | 15 | 270 | 3.2 | 8.0 | 0.00 | 0.00 | 0.00 | 42 | 1028.2 |
| 20260905121517 | 15 | 248 | 3.2 | 8.0 | 0.00 | 0.00 | 0.00 | 42 | 1028.2 |
| 20260905120516 | 15 | 270 | 3.2 | 6.4 | 0.00 | 0.00 | 0.00 | 42 | 1029.4 |
| 20260905115516 | 14 | 270 | 4.8 | 8.0 | 0.00 | 0.00 | 0.00 | 42 | 1029.4 |
| 20260905114516 | 14 | 225 | 3.2 | 6.4 | 0.00 | 0.00 | 0.00 | 42 | 1029.4 |
| 20260905113517 | 15 | 203 | 4.8 | 8.0 | 0.00 | 0.00 | 0.00 | 41 | 1028.8 |
| 20260905112536 | 15 | 248 | 3.2 | 8.0 | 0.00 | 0.00 | 0.00 | 41 | 1028.7 |
| 20260905111536 | 15 | 248 | 1.6 | 6.4 | 0.00 | 0.00 | 0.00 | 42 | 1028.8 |
| 20260905110537 | 15 | 270 | 4.8 | 9.7 | 0.00 | 0.00 | 0.00 | 42 | 1029.2 |
| 20260905105517 | 15 | 270 | 3.2 | 8.0 | 0.00 | 0.00 | 0.00 | 42 | 1029.2 |
| 20260905104536 | 15 | 270 | 4.8 | 8.0 | 0.00 | 0.00 | 0.00 | 42 | 1029.1 |
| 20260905103516 | 15 | 270 | 4.8 | 8.0 | 0.00 | 0.00 | 0.00 | 42 | 1028.5 |
| 20260905102516 | 15 | 248 | 3.2 | 9.7 | 0.00 | 0.00 | 0.00 | 43 | 1028.5 |
| 20260905101516 | 15 | 248 | 3.2 | 6.4 | 0.00 | 0.00 | 0.00 | 44 | 1028.4 |
| 20260905100516 | 15 | 225 | 3.2 | 6.4 | 0.00 | 0.00 | 0.00 | 43 | 1029.0 |
| 20260905095516 | 15 | 270 | 4.8 | 8.0 | 0.00 | 0.00 | 0.00 | 44 | 1029.0 |
| 20260905094516 | 15 | 248 | 3.2 | 4.8 | 0.00 | 0.00 | 0.00 | 44 | 1029.0 |
| 20260905093516 | 15 | 248 | 1.6 | 6.4 | 0.00 | 0.00 | 0.00 | 44 | 1029.6 |
| 20260905092516 | 15 | 270 | 1.6 | 4.8 | 0.00 | 0.00 | 0.00 | 45 | 1029.6 |
| 20260905091516 | 15 | 0.0 | 3.2 | 0.00 | 0.00 | 0.00 | 46 | 1029.6 | |
| 20260905090516 | 15 | 225 | 1.6 | 3.2 | 0.00 | 0.00 | 0.00 | 46 | 1029.7 |
| 20260905085516 | 15 | 135 | 1.6 | 3.2 | 0.00 | 0.00 | 0.00 | 47 | 1029.6 |